Regional Weather Roundup
Issued by NWS

Home | Current Version | Previous Version | Graphics & Text | Print | Product List | Glossary On
Versions: 1 2 3 4 5 6 7 8 9 10 11 12 13 14 15 16 17 18 19 20 21 22 23 24 25 26 27 28 29 30 31 32 33 34 35 36 37 38 39 40 41 42 43 44 45 46 47 48 49 50
343
ASUS45 KBOU 190507
RWRCO

WEATHER ROUNDUP FOR COLORADO
NATIONAL WEATHER SERVICE DENVER/BOULDER CO
1100 PM MDT MON SEP 18 2017

NOTE: "FAIR" INDICATES FEW OR NO CLOUDS BELOW 12000 FEET WITH NO
SIGNIFICANT WEATHER AND/OR OBSTRUCTIONS TO VISIBILITY.

COZ001>005-013-030-031-190600-
...NORTHWEST COLORADO...

CITY           SKY/WX    TMP DP  RH WIND       PRES   REMARKS
CRAIG          FAIR      62  28  27 CALM      29.90F
HAYDEN         FAIR      58  30  34 SE6       29.95F
MEEKER         FAIR      52  35  52 VRB3      29.93F
RABBIT EARS PA FAIR      46  23  39 S14G35    30.17F
STEAMBOAT SPGS FAIR      57  32  38 E5        29.96F
WALDEN         FAIR      54  27  35 S9        30.04F
$$

COZ006>008-011-190600-
...WEST CENTRAL VALLEYS...

CITY           SKY/WX    TMP DP  RH WIND       PRES   REMARKS
GRAND JUNCTION FAIR      62  28  27 SE10      29.88F
MONTROSE       FAIR      59  29  31 S10       29.99F
EAGLE          FAIR      57  28  33 E8        30.01F
RIFLE          FAIR      63  25  23 SE14      29.91F
DELTA          FAIR      64  29  26 MISG      29.95F
NUCLA          FAIR      59  27  29 E8        30.03F
$$

COZ017>023-064>068-190600-
...SOUTHWEST COLORADO...

CITY           SKY/WX    TMP DP  RH WIND       PRES   REMARKS
DURANGO        FAIR      50  32  50 CALM      30.12S
CORTEZ         FAIR      49  33  54 CALM      30.06R
PAGOSA SPRINGS FAIR      46  24  42 CALM      30.19S
TELLURIDE      FAIR      53  22  29 NW5       30.24F
WOLF CREEK PAS NOT AVBL
$$

COZ009-010-012-014-032>034-037-058>063-190600-
...CENTRAL COLORADO...

CITY           SKY/WX    TMP DP  RH WIND       PRES   REMARKS
ASPEN          FAIR      51  30  44 S14       30.09F
BUENA VISTA    FAIR      52  26  37 W9        30.12S
COPPER MTN     FAIR      46  16  29 SW12G24   30.33F
BERTHOUD PASS  FAIR      37  32  81 W24G36    30.33F
COTTONWOOD PAS FAIR      55  16  21 SW9G18    30.23F
GUNNISON       FAIR      47  32  56 N7        30.15S
KREMMLING      FAIR      64  19  17 SW16G26   30.03F
LEADVILLE      FAIR      46  24  42 S12       30.21F
MONARCH PASS   FAIR      41  23  48 SW30G39   30.46F
SALIDA         FAIR      57  32  38 SW6       30.18S
SUNLIGHT       FAIR      43  19  39 SW24G36   30.24F
WILKERSON PASS FAIR      45  27  49 SW17G24   30.31F
$$

COZ069>075-190600-
...SAN LUIS VALLEY/SANGRE DE CRISTO MOUNTAINS...

CITY           SKY/WX    TMP DP  RH WIND       PRES   REMARKS
ALAMOSA        FAIR      42  30  62 SE7       30.15S
DEL NORTE      FAIR      52  21  29 W9        30.17S
LA VETA PASS   FAIR      48  19  32 MISG      30.37F
SAGUACHE       FAIR      50  28  43 CALM      30.16S
$$

COZ035-036-038>040-190600-
...NORTHERN COLORADO FRONT RANGE...

CITY           SKY/WX    TMP DP  RH WIND       PRES   REMARKS
DENVER INTL AP FAIR      70  35  27 SW17      29.88S
DMNS CITY PARK   N/A     61  41  46 E9        29.86F
AURORA         CLEAR     67  36  31 S20       29.89F
FRONT RANGE AP FAIR      70  36  28 S15G24    29.89F
ERIE MUNI ARPT FAIR      59  32  35 SW3       29.90S
BOULDER MUN AP FAIR      64  32  29 W8        29.85F
CENTENNIAL     FAIR      68  36  30 S20G28    29.91F
BROOMFIELD     FAIR      64  32  29 S3        29.89F
FORT COLLINS   FAIR      64  37  36 N5        29.83F
LONGMONT       FAIR      61  34  36 W8        29.85F
$$

COZ041-046-047-076>085-087-088-190600-
...PIKES PEAK/PALMER DIVIDE AND SOUTHERN FOOTHILLS...

CITY           SKY/WX    TMP DP  RH WIND       PRES   REMARKS
COLO. SPRINGS  FAIR      61  37  41 E9        29.98F
A. F. ACADEMY  FAIR      56  35  44 N5        29.99F
SCHRIEVER AFB  FAIR      57  34  42 MISG      29.98F
CHEYENNE MTN   NOT AVBL
ELLICOTT       NOT AVBL
FALCON         FAIR      55  33  44 CALM      30.03F
FORT CARSON    FAIR      59  36  42 CALM      29.94F
LIMON            N/A    N/A N/A N/A MISG      29.93F
MONUMENT HILL  FAIR      55  34  44 S13       30.03F
CANON CITY     CLEAR     63  37  39 W5        29.92F
WALSENBURG     FAIR      68  21  17 S15       29.99F
TRINIDAD       FAIR      59  35  40 SW10      29.99F
$$

COZ042>045-048>051-090-091-190600-
...NORTHEAST COLORADO...

CITY           SKY/WX    TMP DP  RH WIND       PRES   REMARKS
GREELEY ARPT   FAIR      58  39  49 SE3       29.82F
AKRON          FAIR      63  42  46 S17       29.88F
BURLINGTON     FAIR      60  47  61 SE13      29.90F
WRAY           FAIR      63  46  55 SE6       29.86S
YUMA           FAIR      59  45  58 SE6       29.87S
STERLING       FAIR      64  45  48 S12       29.82F
HOLYOKE        FAIR      61  46  59 SE8       29.86F
FORT MORGAN    FAIR      62  35  37 SE10G18   29.84F
$$

COZ086-089-092>099-190600-
...SOUTHEAST COLORADO...

CITY           SKY/WX    TMP DP  RH WIND       PRES   REMARKS
PUEBLO         FAIR      60  31  33 CALM      29.87F
LA JUNTA       FAIR      67  46  47 S7        29.86F
LAMAR          FAIR      67  53  61 SE14      29.83F
SPRINGFIELD    NOT AVBL
$$




USA.gov is the U.S. government's official web portal to all federal, state and local government web resources and services.